Location: Pl�tzky
(52.0521°N, 11.8020°E)
Time: 08:42:04
(UTC+00:00)

Cosmos 1633 - Pass Details

Date: 22 November 2019
Orbit: 465 x 482 km, 82.5° (Epoch: 14 December)

Event Time Altitude Azimuth Distance (km) Brightness Sun altitude
Rises 16:13:10 0° 349° (N) 2,561 6.1 -9.1°
Reaches altitude 10° 16:15:17 10° 349° (N) 1,674 5.2 -9.4°
Maximum altitude 16:18:57 90° 272° (W) 489 2.5 -9.9°
Drops below altitude 10° 16:22:34 10° 171° (S) 1,652 5.4 -10.4°
Sets 16:24:38 0° 171° (S) 2,522 6.3 -10.7°
